Flag Weather past 2 weeks in Fairfax, Virginia, U.S.A.

Now
42 °F

Overcast.


Feels Like: 36 °F
Forecast: 33 / 53 °F
Wind: 10 mph from South

Location: Washington-Dulles International Airport

Current Time: Nov 22, 2014 at 10:57:26 PM

Latest Report: Nov 22, 2014 at 9:52 PM


Visibility: 10 mi

Pressure: 30.25 "Hg

Humidity: 36%

Dew point: 17 °F

Location of FairfaxLocation

Historic Weather in Fairfax — Graph

°F

Fairfax temperature yesterday

Maximum temperature yesterday: 35 °F (at 1:52 PM)
Minimum temperature yesterday: 20 °F (at 9:52 PM)
Average temperature yesterday: 28 °F

Past Weeks' High & Low Weather Summary

 TemperatureHumidityPressure
High70 °F (Nov 11, 2:52 PM)100% (Nov 11, 10:52 PM)30.57 "Hg (Nov 11, 10:52 PM)
Low15 °F (Nov 19, 5:52 AM)25% (Nov 22, 1:52 PM)29.55 "Hg (Nov 17, 1:52 PM)
Average38 °F61%30.12 "Hg
* Reported Nov 7 8:52 PM — Nov 22 8:52 PM, Fairfax, Weather by CustomWeather, © 2014

Note: Actual official high and low records may vary slightly from our data, if they occured in-between our weather recording intervals... More about our weather records

Advertising

Fairfax weather history for previous 24 hours

 ConditionsComfort  
Time TempWeatherWind HumidityBarometerVisibility
8:52 PM
Nov 22
42 °FPassing clouds.9 mph35%30.27 "Hg10 mi
7:52 PM43 °FPassing clouds.8 mph34%30.28 "Hg10 mi
6:52 PM42 °FPassing clouds.8 mph35%30.29 "Hg10 mi
5:52 PM44 °FPassing clouds.10 mph32%30.29 "Hg10 mi
4:52 PM46 °FPassing clouds.13 mph30%30.30 "Hg10 mi
3:52 PM49 °FPartly sunny.14 mph27%30.31 "Hg10 mi
2:52 PM48 °FScattered clouds.13 mph27%30.33 "Hg10 mi
1:52 PM48 °FScattered clouds.12 mph25%30.36 "Hg10 mi
12:52 PM46 °FScattered clouds.15 mph29%30.38 "Hg10 mi
11:52 AM44 °FScattered clouds.18 mph29%30.42 "Hg10 mi
10:52 AM38 °FPassing clouds.13 mph39%30.46 "Hg10 mi
9:52 AM33 °FPassing clouds.10 mph49%30.50 "Hg10 mi
8:52 AM27 °FSunny.5 mph66%30.50 "Hg10 mi
7:52 AM22 °FPassing clouds.No wind72%30.52 "Hg10 mi
6:52 AM17 °FPassing clouds.No wind76%30.52 "Hg10 mi
5:52 AM15 °FClear.No wind87%30.53 "Hg10 mi
4:52 AM17 °FClear.No wind80%30.53 "Hg10 mi
3:52 AM16 °FClear.3 mph84%30.55 "Hg10 mi
2:52 AM19 °FClear.No wind74%30.55 "Hg10 mi
1:52 AM18 °FClear.No wind77%30.56 "Hg10 mi
12:52 AM20 °FClear.No wind71%30.55 "Hg10 mi
11:52 PM
Nov 21
20 °FClear.3 mph71%30.55 "Hg10 mi
10:52 PM20 °FClear.No wind71%30.55 "Hg10 mi
Weather by CustomWeather, © 2014

See weather overviewHow to use our weather pages